Location: Bennemühlen
(52.5740°N, 9.7135°E)
Time: 22:01:53
(UTC+00:00)

Cosmos 2058 Rocket - Pass Details

Date: 19 May 2025
Orbit: 604 x 634 km, 82.5° (Epoch: 15 June)

Event Time Altitude Azimuth Distance (km) Brightness Sun altitude
Rises 20:38:02 0° 200° (SSW) 2,919 6.2 -9.6°
Reaches altitude 10° 20:40:18 10° 205° (SSW) 2,013 5.4 -9.8°
Maximum altitude 20:44:43 57° 285° (WNW) 744 3.8 -10.2°
Drops below altitude 10° 20:49:07 10° 4° (N) 2,015 6.5 -10.6°
Sets 20:51:24 0° 9° (N) 2,922 7.3 -10.8°
